Regional Weather Roundup
Issued by NWS

Home | Current Version | Previous Version | Graphics & Text | Print | Product List | Glossary On
Versions: 1 2 3 4 5 6 7 8 9 10 11 12 13 14 15 16 17 18 19 20 21 22 23 24 25 26 27 28 29 30 31 32 33 34 35 36 37 38 39 40 41 42 43 44 45 46 47 48 49 50
372
ASUS43 KDTX 240401
RWRMI
MICHIGAN HOURLY REGIONAL WEATHER ROUNDUP
NATIONAL WEATHER SERVICE DETROIT/PONTIAC MI
1200 AM EDT THU MAY 24 2018

NOTE: "FAIR" INDICATES FEW OR NO CLOUDS BELOW 12,000 FEET WITH NO
SIGNIFICANT WEATHER AND/OR OBSTRUCTION TO VISIBILITY.

MIZ047>049-052>055-059>063-066>070-074>076-081>083-240500-
SOUTHEAST LOWER MICHIGAN

CITY           SKY/WX    TMP DP  RH WIND       PRES   REMARKS
ADRIAN         FAIR      60  57  89 CALM      30.21R
ALMA           FAIR      60  55  83 CALM      30.19F
ANN ARBOR      FAIR      54  53  97 CALM      30.20R
BAD AXE        FAIR      55  49  78 S3        30.18S
CARO           FAIR      55  52  90 CALM      30.18R
DETROIT CITY   FAIR      63  54  72 CALM      30.19R
DETROIT        FAIR      64  52  64 SW5       30.20R
FLINT          FAIR      57  52  83 CALM      30.19R
GROSSE ILE     FAIR      60  56  86 CALM      30.19R
HILLSDALE      FAIR      55  52  88 CALM      30.21S
HOWELL         FAIR      59  54  84 CALM      30.20S

CITY           SKY/WX    TMP DP  RH WIND       PRES   REMARKS
JACKSON        FAIR      55  53  93 SW5       30.20S
LAMBERTVILLE   FAIR      62  54  74 CALM      30.20S
LANSING        FAIR      58  54  86 CALM      30.20S
LAPEER         FAIR      53  51  92 CALM      30.20R
MASON          FAIR      59  55  87 CALM      30.21S
MONROE         FAIR      62  57  86 W8        30.19S
MT. CLEMENS    FAIR      58  58 100 CALM      30.18R
PONTIAC        MOCLDY    61  54  77 CALM      30.19R
PORT HOPE        N/A     60  47  61 SW7       30.15S
PORT HURON     FAIR      50  46  87 CALM      30.19S
TRI CITIES     MOCLDY    68  55  63 W9        30.18R
MIDLAND        FAIR      65  54  67 W5        30.17S
TROY           FAIR      66  52  59 W3        30.21R
SAGINAW HB     FAIR      64  52  63 SW6       30.17S
$$
MIZ043>046-050>051-056>058-064>065-071>073-077>080-240500-
SOUTHWEST LOWER MICHIGAN

CITY           SKY/WX    TMP DP  RH WIND       PRES   REMARKS
BATTLE CREEK   FAIR      60  53  77 CALM      30.21S
BENTON HARBOR  FAIR      55  52  89 CALM      30.19S
BIG RAPIDS     FAIR      56  52  86 CALM      30.19S
COLDWATER      FAIR      58  57  95 CALM      30.20F
FREMONT        FAIR      55  54  98 CALM      30.20R
HOLLAND        FAIR      58  55  90 CALM      30.20S
GRAND RAPIDS   MOCLDY    59  55  87 SE3       30.20S
IONIA          FAIR      62  53  73 W3        30.19F
KALAMAZOO      FAIR      60  56  86 CALM      30.21R
LUDINGTON      FAIR      52  52 100 CALM      30.17S
MARSHALL       FAIR      56  52  87 CALM      30.21R
MOUNT PLEASANT FAIR      65  54  66 W3        30.18S
MUSKEGON       FAIR      55  52  89 CALM      30.19F
SOUTH HAVEN    FAIR      55  53  93 CALM      30.20S
$$
MIZ016>042-240500-
NORTHERN LOWER MICHIGAN

CITY           SKY/WX    TMP DP  RH WIND       PRES   REMARKS
ALPENA         FAIR      56  51  84 CALM      30.15S
BEAVER ISLAND  FOG       44  44  97 CALM      30.17S VSB 3/4
BELLAIRE       FAIR      54  52  95 CALM      30.17F
CADILLAC       FAIR      52  47  82 CALM      30.19S
CHARLEVOIX     FAIR      50  50 100 CALM      30.20R
FRANKFORT      FAIR      59  53  81 NW3       30.17S
GAYLORD        FAIR      59  49  69 CALM      30.18S
HARBOR SPRINGS FAIR      47  46  98 CALM      30.18R FOG
HOUGHTON LAKE  FAIR      58  53  84 CALM      30.19R
MANISTEE       FAIR      53  50  89 E3        30.17S
OSCODA         FAIR      54  41  60 CALM      30.15S
PELLSTON       FAIR      52  51  97 SE5       30.17R
ROGERS CITY    FAIR      53  46  79 CALM      30.15S
TRAVERSE CITY  FAIR      53  50  89 CALM      30.16S
$$
MIZ007>008-015-240500-
EASTERN UPPER MICHIGAN

CITY           SKY/WX    TMP DP  RH WIND       PRES   REMARKS
KINROSS        FAIR      61  53  75 W7        30.14S
MACKINAC ISLAN FAIR      49  49 100 W8        30.16R FOG
NEWBERRY       FAIR      55  54  97 SW9       30.14S
S. S. MARIE    FAIR      58  47  66 CALM      30.12F
MUNISING         N/A     57  50  77 S6        30.11F
$$
MIZ004>006-011>014-085-240500-
CENTRAL UPPER MICHIGAN

CITY           SKY/WX    TMP DP  RH WIND       PRES   REMARKS
MANISTIQUE     FOG       45  44  95 SE5       30.14F VSB 1/4
ESCANABA       FAIR      55  52  89 CALM      30.13S
MENOMINEE      FAIR      68  57  68 SW8       30.14R
$$
MIZ001>003-009>011-084-240500-
WESTERN UPPER MICHIGAN

CITY           SKY/WX    TMP DP  RH WIND       PRES   REMARKS
IRON MOUNTAIN  FAIR      65  55  70 SE6       30.12R
HOUGHTON       FAIR      56  48  74 E6        30.11S
COPPER HARBOR    N/A     60  48  64 SW13      30.08F
IRONWOOD       FAIR      61  56  83 E3        30.12S
$$

ABBREVIATIONS USED IN REMARKS
   TC - TEMPERATURE IN CELSIUS
  WCI - WIND CHILL INDEX
   HX - HEAT INDEX
  VSB - VISIBILITY





USA.gov is the U.S. government's official web portal to all federal, state and local government web resources and services.